Regional Weather Roundup
Issued by NWS

Home | Current Version | Previous Version | Text Only | Print | Product List | Glossary Off
Versions: 1 2 3 4 5 6 7 8 9 10 11 12 13 14 15 16 17 18 19 20 21 22 23 24 25 26 27 28 29 30 31 32 33 34 35 36 37 38 39 40 41 42 43 44 45 46 47 48 49 50

000
ASUS43 KLSX 291159
RWRMO

WEATHER SUMMARY FOR MISSOURI
NATIONAL WEATHER SERVICE SPRINGFIELD MO
700 AM CDT FRI AUG 29 2014

NOTE: "FAIR" INDICATES FEW OR NO CLOUDS BELOW 12,000 FEET WITH NO
       SIGNIFICANT WEATHER AND/OR OBSTRUCTIONS TO VISIBILITY.
       CURRENT SKY AND/OR WEATHER CONDITIONS ARE NOT AVAILABLE FOR
       CHILLICOTHE AND FARMINGTON.

MOZ001>031-035>038-043-044-053-054-291300-
...NORTHERN AND WESTERN MISSOURI...

CITY           SKY/WX    TMP DP  RH WIND       PRES   REMARKS
KANSAS CTY INT MOCLDY    69  64  84 S6        29.88R
6HR MIN TEMP:  69; 6HR MAX TEMP:  73;

KANSAS C DTWN  MOCLDY    75  64  68 S3        29.86R
6HR MIN TEMP:  75; 6HR MAX TEMP:  80;

LEE`S SUMMIT   CLEAR     70  64  81 S6        29.88R
6HR MIN TEMP:  69; 6HR MAX TEMP:  76;

ST JOSEPH      CLEAR     69  65  86 S3        29.85R
6HR MIN TEMP:  68; 6HR MAX TEMP:  74;

KIRKSVILLE     CLEAR     68  66  93 S6        29.92R FOG
6HR MIN TEMP:  68; 6HR MAX TEMP:  73;


$$
MOZ066>068-077>081-088>096-101>105-291300-
...SOUTHWEST MISSOURI...

CITY           SKY/WX    TMP DP  RH WIND       PRES   REMARKS
SPRINGFIELD    PTCLDY    71  63  75 SE10      29.94R
6HR MIN TEMP:  71; 6HR MAX TEMP:  74;

JOPLIN         PTCLDY    74  66  76 S12       29.91S
6HR MIN TEMP:  73; 6HR MAX TEMP:  77;


$$
MOZ032>034-039>042-045>050-055>058-069>072-291300-
...CENTRAL MISSOURI...

CITY           SKY/WX    TMP DP  RH WIND       PRES   REMARKS
COLUMBIA       CLEAR     71  64  78 S8        29.94R
6HR MIN TEMP:  69; 6HR MAX TEMP:  75;

JEFFERSON CITY PTCLDY    71  64  78 SE5       29.93R
6HR MIN TEMP:  69; 6HR MAX TEMP:  76;

ROLLA          CLEAR     69  65  86 S6        29.95R
6HR MIN TEMP:  69; 6HR MAX TEMP:  74;

SEDALIA        CLEAR     69  62  78 S7        29.92R
6HR MIN TEMP:  69; 6HR MAX TEMP:  76;

OSAGE BEACH    CLEAR     70  61  73 SE5       29.94R

$$
MOZ051-052-059>065-291300-
...EAST CENTRAL MISSOURI...

CITY           SKY/WX    TMP DP  RH WIND       PRES   REMARKS
ST LOUIS INTL  MOCLDY    75  70  84 S6        29.97R
6HR MIN TEMP:  75; 6HR MAX TEMP:  78;

SPIRIT OF STL  PTCLDY    69  68  96 CALM      29.95R
6HR MIN TEMP:  68; 6HR MAX TEMP:  75;

ST CHARLES     PTCLDY    72  71  97 CALM      29.96R FOG
6HR MIN TEMP:  72; 6HR MAX TEMP:  73;


$$
MOZ072>076-082>087-097>100-106>115-291300-
...SOUTH CENTRAL AND SOUTHEAST MISSOURI...

CITY           SKY/WX    TMP DP  RH WIND       PRES   REMARKS
CAPE GIRARDEAU CLEAR     67  66  97 CALM      29.97R FOG
6HR MIN TEMP:  67; 6HR MAX TEMP:  71;

FARMINGTON       N/A     70  68  94 S3        30.01R
6HR MIN TEMP:  68; 6HR MAX TEMP:  72;

POPLAR BLUFF   PTCLDY    71  67  87 CALM      29.96R FOG
6HR MIN TEMP:  71; 6HR MAX TEMP:  73;

WEST PLAINS    CLEAR     67  63  87 CALM      30.00R
6HR MIN TEMP:  64; 6HR MAX TEMP:  74;


$$



USA.gov is the U.S. government's official web portal to all federal, state and local government web resources and services.